Location: Peterborough
(44.3091°N, 78.3197°W)
Time: 00:37:39
(UTC-04:00)

S-56A Canister/Altair - Pass Details

Date: 29 March 2023
Orbit: 639 x 2492 km, 38.9° (Epoch: 02 June)

Event Time Altitude Azimuth Distance (km) Brightness Sun altitude
Rises 00:23:05 0° 282° (WNW) 5,754 12.3 -40.8°
Reaches altitude 10° 00:26:49 10° 277° (W) 4,908 11.8 -41.0°
Enters shadow 00:36:47 42° 241° (WSW) 3,224 10.4 -41.5°
